This is the latest recevied weather packets stored in our database for station/object K7MT-WX. If no packets are shown the sender has not sent any weather packets the latest 10 day(s).
| Time | Temp. | Humidity | Pressure | Rain* | Wind** | Luminosity | Snow |
|---|---|---|---|---|---|---|---|
| 1778004251 | 10° C | 42% | 1017.6 hPa | 0 mm | - | - | - |
| 1778003351 | 10° C | 42% | 1017.6 hPa | 0 mm | - | - | - |
| 1778002451 | 10° C | 45% | 1017.6 hPa | 0 mm | - | - | - |
| 1778001551 | 8.89° C | 44% | 1017.6 hPa | 0 mm | - | - | - |
| 1778000651 | 8.33° C | 45% | 1017.9 hPa | 0 mm | - | - | - |
| 1777999751 | 7.78° C | 47% | 1018 hPa | 0 mm | - | - | - |
| 1777998851 | 7.78° C | 48% | 1017.9 hPa | 0 mm | - | - | - |
| 1777997951 | 7.78° C | 47% | 1017.9 hPa | 0 mm | - | - | - |
| 1777997051 | 7.22° C | 49% | 1018 hPa | 0 mm | - | - | - |
| 1777996151 | 7.22° C | 48% | 1018 hPa | 0 mm | - | - | - |
| 1777995251 | 7.22° C | 52% | 1018 hPa | 0 mm | - | - | - |
| 1777994351 | 6.11° C | 53% | 1018 hPa | 0 mm | - | - | - |
| 1777993451 | 5.56° C | 56% | 1018.1 hPa | 0 mm | - | - | - |
| 1777992551 | 5° C | 59% | 1018 hPa | 0 mm | - | - | - |
| 1777991651 | 4.44° C | 61% | 1018 hPa | 0 mm | - | - | - |
| 1777990751 | 3.89° C | 63% | 1017.9 hPa | 0 mm | - | - | - |
| 1777989851 | 3.33° C | 66% | 1017.9 hPa | 0 mm | - | - | - |
| 1777988951 | 2.78° C | 71% | 1017.8 hPa | 0 mm | - | - | - |
| 1777988051 | 2.22° C | 70% | 1017.7 hPa | 0 mm | - | - | - |
| 1777987151 | 1.67° C | 72% | 1017.5 hPa | 0 mm | - | - | - |
| 1777986251 | 1.11° C | 73% | 1017.4 hPa | 0 mm | - | - | - |
| 1777985351 | 0.56° C | 72% | 1017.1 hPa | 0 mm | - | - | - |
| 1777984451 | 0.56° C | 72% | 1017.1 hPa | 0 mm | - | - | - |
| 1777983551 | 0.56° C | 72% | 1016.9 hPa | 0 mm | - | - | - |
| 1777982651 | 0.56° C | 71% | 1016.7 hPa | 0 mm | - | - | - |
* Rain latest hour (hover to see other rain measurements)
** Current wind speed in m/s (hover to see current wind gust speed)